Weather History for Alpena, MI

Change the Weather History Date:

Saturday, February 16, 2013

  Actual Average Record
Temperature  
Mean Temperature 13 °F 20 °F  
Max Temperature 20 °F 29 °F 56 °F (1921)
Min Temperature 5 °F 11 °F -25 °F (1963)
Degree Days  
Heating Degree Days 52 45  
Month to date heating degree days 751 730  
Since 1 July heating degree days 4818 5212  
Moisture  
Dew Point 5 °F    
Average Humidity 65    
Maximum Humidity 80    
Minimum Humidity 49    
Precipitation  
Precipitation T in 0.05 in 0.37 in (2006)
Month to date precipitation 0.86 0.70  
Year to date precipitation 3.63 2.36  
Snow  
Snow T in 0.60 in 6.70 in (2006)
Month to date snowfall 8.8 10.1  
Since 1 July snowfall 29.8 58.7  
Snow Depth 6.00 in    
Sea Level Pressure  
Sea Level Pressure 30.09 in    
Wind  
Wind Speed 6 mph (NW)    
Max Wind Speed 15 mph    
Max Gust Speed 17 mph    
Visibility 9 miles    
Events Snow    
T = Trace of Precipitation, MM = Missing Value Source: NWS Daily Summary

Daily Weather History Graph

Daily Weather History Graph

Search for Another Location

Airport:

Trip Planner

Search our weather history database for the weather conditions in past years. The results will help you decide how hot, cold, wet, or windy it might be!

Date:

Astronomy

Feb. 16, 2013 Rise Set
Actual Time 7:33 AM EST 6:03 PM EST
Civil Twilight 7:03 AM EST 6:34 PM EST
Nautical Twilight 6:28 AM EST 7:08 PM EST
Astronomical Twilight 5:54 AM EST 7:42 PM EST
Moon 10:25 AM EST (2/16) 12:21 AM EST (2/16)
Length of Visible Light 11h 30m
Length of Day
10h 30m
Waxing Crescent, 39% of the Moon is Illuminated
Feb 16
Waxing Crescent
Feb 17
First Quarter
Feb 25
Full
Mar 4
Last Quarter
Mar 11
New

Hourly Weather History & Observations

Time (EST) Temp. Windchill Dew Point Humidity Pressure Visibility Wind Dir Wind Speed Gust Speed Precip Events Conditions
12:54 AM 15.1 °F 7.7 °F 7.0 °F 70% 30.11 in 10.0 mi West 4.6 mph - N/A   Overcast
1:54 AM 14.0 °F 8.2 °F 6.1 °F 71% 30.11 in 10.0 mi WNW 3.5 mph - N/A   Overcast
2:54 AM 14.0 °F 8.2 °F 6.1 °F 71% 30.09 in 10.0 mi WNW 3.5 mph - N/A   Overcast
3:54 AM 12.9 °F - 5.0 °F 71% 30.08 in 10.0 mi Calm Calm - N/A   Overcast
4:54 AM 12.9 °F - 5.0 °F 71% 30.08 in 10.0 mi Calm Calm - N/A   Overcast
5:54 AM 12.9 °F - 5.0 °F 71% 30.08 in 10.0 mi Calm Calm - N/A   Overcast
6:54 AM 12.0 °F - 5.0 °F 73% 30.08 in 10.0 mi Calm Calm - N/A   Overcast
7:54 AM 12.0 °F 5.9 °F 5.0 °F 73% 30.09 in 10.0 mi West 3.5 mph - N/A   Overcast
8:54 AM 12.9 °F 6.9 °F 5.0 °F 71% 30.09 in 10.0 mi WSW 3.5 mph - N/A   Overcast
9:54 AM 16.0 °F 8.8 °F 7.0 °F 68% 30.09 in 10.0 mi WNW 4.6 mph - N/A   Overcast
10:54 AM 18.0 °F 9.8 °F 3.0 °F 52% 30.08 in 10.0 mi NW 5.8 mph - 0.00 in   Mostly Cloudy
11:54 AM 19.0 °F 10.0 °F 3.0 °F 50% 30.07 in 10.0 mi NNE 6.9 mph - 0.00 in   Clear
12:54 PM 19.9 °F 11.1 °F 3.9 °F 50% 30.06 in 10.0 mi NE 6.9 mph - 0.00 in   Mostly Cloudy
1:54 PM 17.1 °F 3.6 °F 10.0 °F 74% 30.06 in 6.0 mi NNE 12.7 mph - 0.00 in Snow Light Snow
2:11 PM 17.6 °F 4.3 °F 10.4 °F 73% 30.02 in 4.0 mi North 12.7 mph - 0.00 in Snow Light Snow
2:26 PM 15.8 °F 1.4 °F 10.4 °F 79% 30.02 in 5.0 mi North 13.8 mph - 0.00 in Snow Light Snow
2:54 PM 16.0 °F 1.7 °F 9.0 °F 74% 30.07 in 5.0 mi North 13.8 mph - 0.00 in Snow Light Snow
3:34 PM 15.8 °F 2.7 °F 8.6 °F 73% 30.03 in 3.0 mi NNE 11.5 mph - 0.00 in Snow Light Snow
3:54 PM 17.1 °F 3.0 °F 9.0 °F 71% 30.08 in 10.0 mi North 13.8 mph - 0.00 in   Overcast
4:54 PM 14.0 °F -0.2 °F 6.1 °F 71% 30.10 in 10.0 mi NNE 12.7 mph - 0.00 in   Overcast
5:54 PM 12.0 °F 0.5 °F 5.0 °F 73% 30.12 in 10.0 mi NNW 8.1 mph - N/A   Mostly Cloudy
6:07 PM 12.2 °F 1.7 °F 3.2 °F 67% 30.08 in 10.0 mi NNW 6.9 mph - N/A   Scattered Clouds
6:28 PM 12.2 °F 2.9 °F 3.2 °F 67% 30.08 in 10.0 mi NW 5.8 mph - N/A   Mostly Cloudy
6:52 PM 10.4 °F 0.8 °F 3.2 °F 73% 30.08 in 10.0 mi NW 5.8 mph - N/A   Scattered Clouds
6:54 PM 10.9 °F 2.9 °F 3.9 °F 73% 30.13 in 10.0 mi NW 4.6 mph - N/A   Partly Cloudy
7:54 PM 7.0 °F 0.1 °F 1.9 °F 80% 30.14 in 10.0 mi WNW 3.5 mph - N/A   Clear
8:54 PM 8.1 °F -0.5 °F 1.9 °F 76% 30.14 in 10.0 mi WNW 4.6 mph - N/A   Clear
9:54 PM 7.0 °F -3.3 °F 1.0 °F 77% 30.14 in 10.0 mi WNW 5.8 mph - N/A   Clear
10:54 PM 6.1 °F -2.8 °F 1.0 °F 80% 30.14 in 10.0 mi WNW 4.6 mph - N/A   Partly Cloudy
11:54 PM 6.1 °F -4.3 °F 1.0 °F 80% 30.14 in 10.0 mi WNW 5.8 mph - N/A   Mostly Cloudy